Weather in Hrazdan

Armenia     40°30′59″N   44°45′22″E
temp.,
°C
wind,
m/s
gust,
m/s
humid.,
%
clouds,
%
prec.,
mm/h
press.,
hPa
HPBL,
m
15 june, tue
tue1501:00+10ene22750 0.0 101319
04:00+10ene22700 0.0 101321
07:00+12wsw1173100 0.0 101344
10:00+19w4742100 0.0 10111790
13:00+22wsw49348 0.0 10102585
16:00+23wsw27327 0.0 10082869
19:00+19ene34655 0.1 1009151
22:00+12ene33860 0.1 101340
16 june, wed
wed1601:00+11ne34870 0.0 101347
04:00+11ne34880 0.0 101343
07:00+13ne34820 0.0 1013112
10:00+20ene44530 0.0 1010774
13:00+23ne44451 0.0 10091300
16:00+23ne65543 0.4 1008923
19:00+19ne46762 0.9 1009404
22:00+13ne45940 0.9 101283
17 june, thu
thu1701:00+12ne34900 0.0 101254
04:00+11ne33880 0.0 101238
07:00+13ne33820 0.0 1011100
10:00+19ne32640 0.0 1010650
13:00+23nne14480 0.2 10091754
16:00+24ne24420 0.4 10091900
19:00+19ne45750 0.3 1012460
22:00+13ne34930 0.3 101653
18 june, fri
fri1801:00+12ne44920 0.0 101658
04:00+11ne44914 0.0 101661
07:00+13ne35841 0.0 1016142
10:00+19ne44620 0.0 1014926
13:00+22ne435418 0.1 10131580
16:00+22ne54587 0.5 10131151
19:00+19ne46761 0.3 1015568
22:00+13ne44920 1.0 101867
19 june, sat
sat1901:00+12ne45910 0.0 101963
04:00+11ne45880 0.0 101959
07:00+13ne45780 0.0 1019113
10:00+19ene45500 0.0 1017804
13:00+22ene55441 0.0 10151247
16:00+23ene66494 0.0 10141342
19:00+19ne56700 0.0 1016763
22:00+13ne45790 0.0 102058